SN256 DIAP-DFFD

Flight info

Callsign SN256
Flight time N/A
Altitude 23000
Route DCT ZANOU G859 AMSAT UG859 TUMUT TUMU1E
Aircraft A333/H-V/N

Departure

Time N/A
Airport Félix-Houphouët-Boigny International Airport (DIAP)

Arrival

Time 2026-04-15 05:55
Airport Ouagadougou Thomas Sankara International Airport (DFFD)
Time Latitude Longitude Altitude Speed Heading
2026-04-15 04:44 6.06781 -3.66717 22840 ft 349 kts 21°
2026-04-15 04:44 6.09072 -3.65888 22862 ft 349 kts 21°
2026-04-15 04:44 6.11367 -3.65057 22851 ft 347 kts 21°
2026-04-15 04:44 6.13645 -3.64231 22850 ft 347 kts 21°
2026-04-15 04:45 6.15901 -3.63414 22871 ft 347 kts 21°
2026-04-15 04:45 6.18183 -3.62587 22846 ft 348 kts 21°
2026-04-15 04:45 6.20472 -3.61758 22858 ft 348 kts 21°
2026-04-15 04:45 6.22773 -3.60925 22866 ft 348 kts 21°
2026-04-15 04:46 6.25035 -3.60104 22843 ft 347 kts 21°
2026-04-15 04:46 6.29577 -3.58459 22861 ft 347 kts 21°
2026-04-15 04:46 6.31863 -3.57630 22852 ft 347 kts 21°
2026-04-15 04:47 6.34144 -3.56803 22867 ft 343 kts 21°
2026-04-15 04:47 6.36381 -3.55992 22855 ft 345 kts 21°
2026-04-15 04:47 6.38641 -3.55173 22852 ft 343 kts 21°
2026-04-15 04:47 6.40915 -3.54348 22871 ft 345 kts 20°
2026-04-15 04:48 6.43166 -3.53532 22857 ft 344 kts 21°
2026-04-15 04:48 6.45412 -3.52718 22847 ft 344 kts 21°
2026-04-15 04:48 6.47682 -3.51895 22876 ft 345 kts 21°
2026-04-15 04:48 6.49951 -3.51071 22850 ft 346 kts 21°
2026-04-15 04:49 6.52221 -3.50248 22868 ft 345 kts 21°
2026-04-15 04:49 6.54483 -3.49428 22869 ft 343 kts 21°
2026-04-15 04:49 6.56751 -3.48657 22852 ft 342 kts 19°
2026-04-15 04:49 6.59030 -3.47892 22874 ft 343 kts 19°
2026-04-15 04:50 6.61277 -3.47138 22856 ft 343 kts 19°
2026-04-15 04:50 6.63564 -3.46369 22868 ft 343 kts 19°
2026-04-15 04:50 6.65821 -3.45610 22865 ft 341 kts 19°
2026-04-15 04:50 6.68080 -3.44851 22855 ft 343 kts 19°
2026-04-15 04:51 6.70349 -3.44089 22881 ft 341 kts 19°
2026-04-15 04:51 6.72603 -3.43331 22854 ft 341 kts 19°
2026-04-15 04:51 6.74866 -3.42570 22873 ft 341 kts 19°
2026-04-15 04:51 6.77117 -3.41814 22867 ft 341 kts 19°
2026-04-15 04:52 6.79367 -3.41057 22857 ft 342 kts 19°
2026-04-15 04:52 6.81644 -3.40291 22877 ft 341 kts 19°
2026-04-15 04:52 6.83895 -3.39535 22869 ft 341 kts 19°
2026-04-15 04:52 6.86125 -3.38782 22864 ft 339 kts 19°
2026-04-15 04:53 6.88390 -3.38022 22872 ft 338 kts 19°
2026-04-15 04:53 6.90620 -3.37273 22868 ft 339 kts 19°
2026-04-15 04:53 6.92854 -3.36522 22864 ft 340 kts 19°
2026-04-15 04:53 6.95124 -3.35756 22888 ft 348 kts 19°
2026-04-15 04:54 6.97513 -3.34952 22889 ft 367 kts 19°
2026-04-15 04:54 6.99986 -3.34120 22887 ft 383 kts 19°
2026-04-15 04:54 7.02570 -3.33250 22886 ft 398 kts 19°
2026-04-15 04:54 7.05268 -3.32342 22884 ft 412 kts 19°
2026-04-15 04:55 7.08003 -3.31420 22881 ft 424 kts 19°
2026-04-15 04:55 7.10865 -3.30457 22888 ft 434 kts 19°
2026-04-15 04:55 7.13750 -3.29486 22887 ft 444 kts 19°
2026-04-15 04:55 7.16716 -3.28487 22835 ft 433 kts 19°
2026-04-15 04:56 7.19434 -3.27573 22782 ft 390 kts 19°
2026-04-15 04:56 7.21933 -3.26730 23002 ft 383 kts 19°
2026-04-15 04:56 7.24556 -3.25845 22868 ft 402 kts 19°
2026-04-15 04:56 7.27273 -3.24931 22892 ft 414 kts 19°
2026-04-15 04:57 7.30017 -3.24005 22929 ft 425 kts 19°
2026-04-15 04:57 7.32829 -3.23057 22855 ft 417 kts 19°
2026-04-15 04:57 7.35531 -3.22147 22881 ft 394 kts 19°
2026-04-15 04:57 7.38049 -3.21298 22886 ft 375 kts 19°
2026-04-15 04:58 7.40523 -3.20464 22873 ft 369 kts 19°
2026-04-15 04:58 7.42961 -3.19642 22912 ft 373 kts 19°
2026-04-15 04:58 7.45486 -3.18790 22899 ft 390 kts 19°
2026-04-15 04:58 7.48130 -3.17898 22903 ft 404 kts 19°
2026-04-15 04:59 7.50826 -3.16988 22892 ft 414 kts 19°
2026-04-15 04:59 7.53572 -3.16061 22890 ft 410 kts 19°
2026-04-15 04:59 7.56261 -3.15155 22886 ft 406 kts 19°
2026-04-15 04:59 7.58939 -3.14251 22894 ft 404 kts 19°
2026-04-15 05:00 7.61620 -3.13345 22881 ft 405 kts 19°
2026-04-15 05:00 7.64302 -3.12440 22898 ft 403 kts 19°
2026-04-15 05:00 7.66965 -3.11541 22883 ft 405 kts 19°
2026-04-15 05:00 7.69626 -3.10641 22874 ft 403 kts 19°
2026-04-15 05:01 7.72316 -3.09733 22891 ft 405 kts 19°
2026-04-15 05:01 7.74974 -3.08834 22884 ft 403 kts 19°
2026-04-15 05:01 7.77646 -3.07930 22872 ft 404 kts 19°
2026-04-15 05:01 7.80333 -3.07022 22875 ft 403 kts 19°
2026-04-15 05:02 7.82981 -3.06126 22886 ft 405 kts 19°
2026-04-15 05:02 7.85662 -3.05219 22884 ft 404 kts 19°
2026-04-15 05:02 7.88346 -3.04311 22876 ft 404 kts 19°
2026-04-15 05:02 7.90999 -3.03415 22882 ft 405 kts 19°
2026-04-15 05:03 7.93683 -3.02505 22896 ft 404 kts 19°
2026-04-15 05:03 7.96375 -3.01594 22894 ft 405 kts 19°
2026-04-15 05:03 7.99022 -3.00698 22884 ft 403 kts 19°
2026-04-15 05:03 8.01707 -2.99790 22888 ft 406 kts 19°
2026-04-15 05:04 8.04454 -2.98860 22905 ft 418 kts 19°
2026-04-15 05:04 8.07220 -2.97923 22905 ft 429 kts 19°
2026-04-15 05:04 8.10081 -2.96954 22896 ft 433 kts 19°
2026-04-15 05:04 8.12969 -2.95976 22900 ft 431 kts 19°
2026-04-15 05:05 8.15821 -2.95010 22909 ft 430 kts 19°
2026-04-15 05:05 8.18665 -2.94045 22883 ft 430 kts 19°
2026-04-15 05:05 8.21491 -2.93088 22907 ft 430 kts 19°
2026-04-15 05:05 8.24351 -2.92118 22912 ft 430 kts 19°
2026-04-15 05:06 8.27206 -2.91151 22878 ft 430 kts 19°
2026-04-15 05:06 8.30045 -2.90189 22910 ft 430 kts 19°
2026-04-15 05:06 8.32894 -2.89222 22904 ft 431 kts 19°
2026-04-15 05:06 8.35717 -2.88265 22893 ft 430 kts 19°
2026-04-15 05:07 8.38582 -2.87293 22897 ft 430 kts 19°
2026-04-15 05:07 8.41433 -2.86327 22909 ft 431 kts 19°
2026-04-15 05:07 8.44270 -2.85364 22891 ft 430 kts 19°
2026-04-15 05:07 8.47106 -2.84401 22879 ft 430 kts 19°
2026-04-15 05:08 8.49958 -2.83433 22893 ft 430 kts 19°
2026-04-15 05:08 8.52799 -2.82468 22900 ft 432 kts 19°
2026-04-15 05:08 8.55675 -2.81491 22866 ft 431 kts 19°
2026-04-15 05:08 8.58485 -2.80538 22879 ft 430 kts 19°
2026-04-15 05:09 8.61340 -2.79569 22900 ft 432 kts 19°
2026-04-15 05:09 8.64188 -2.78601 22851 ft 421 kts 19°
2026-04-15 05:09 8.66914 -2.77675 22850 ft 407 kts 19°
2026-04-15 05:09 8.69655 -2.76743 22900 ft 419 kts 19°
2026-04-15 05:10 8.72451 -2.75793 22867 ft 431 kts 19°
2026-04-15 05:10 8.75284 -2.74831 22848 ft 430 kts 19°
2026-04-15 05:10 8.78119 -2.73867 22880 ft 427 kts 19°
2026-04-15 05:10 8.80946 -2.72906 22861 ft 427 kts 19°
2026-04-15 05:11 8.83782 -2.71941 22847 ft 424 kts 19°
2026-04-15 05:11 8.86588 -2.70986 22861 ft 425 kts 19°
2026-04-15 05:11 8.89394 -2.70031 22858 ft 424 kts 19°
2026-04-15 05:11 8.92216 -2.69072 22831 ft 424 kts 19°
2026-04-15 05:12 8.95018 -2.68119 22835 ft 425 kts 19°
2026-04-15 05:12 8.97834 -2.67160 22858 ft 427 kts 19°
2026-04-15 05:12 9.00623 -2.66211 22821 ft 426 kts 19°
2026-04-15 05:12 9.03441 -2.65248 22821 ft 426 kts 19°
2026-04-15 05:13 9.06243 -2.64291 22867 ft 425 kts 19°
2026-04-15 05:13 9.09080 -2.63322 22835 ft 426 kts 19°
2026-04-15 05:13 9.11885 -2.62364 22840 ft 424 kts 19°
2026-04-15 05:13 9.14671 -2.61411 22889 ft 426 kts 19°
2026-04-15 05:14 9.17497 -2.60445 22852 ft 428 kts 19°
2026-04-15 05:14 9.20359 -2.59466 22842 ft 427 kts 19°
2026-04-15 05:14 9.23176 -2.58503 22881 ft 428 kts 19°
2026-04-15 05:14 9.26012 -2.57533 22848 ft 429 kts 19°
2026-04-15 05:15 9.28849 -2.56563 22843 ft 428 kts 19°
2026-04-15 05:15 9.31665 -2.55600 22882 ft 429 kts 19°
2026-04-15 05:15 9.34482 -2.54636 22851 ft 428 kts 19°
2026-04-15 05:15 9.37315 -2.53667 22853 ft 427 kts 19°
2026-04-15 05:16 9.40127 -2.52704 22882 ft 428 kts 19°
2026-04-15 05:16 9.42984 -2.51726 22859 ft 427 kts 19°
2026-04-15 05:16 9.45777 -2.50769 22859 ft 427 kts 19°
2026-04-15 05:16 9.48612 -2.49799 22883 ft 430 kts 19°
2026-04-15 05:17 9.51475 -2.48818 22858 ft 430 kts 19°
2026-04-15 05:17 9.54318 -2.47844 22846 ft 430 kts 19°
2026-04-15 05:17 9.57144 -2.46875 22871 ft 429 kts 19°
2026-04-15 05:17 9.59957 -2.45912 22865 ft 429 kts 19°
2026-04-15 05:18 9.62813 -2.44933 22841 ft 429 kts 19°
2026-04-15 05:18 9.65657 -2.43962 22861 ft 428 kts 19°
2026-04-15 05:18 9.68493 -2.42993 22865 ft 430 kts 19°
2026-04-15 05:18 9.71294 -2.42035 22841 ft 429 kts 19°
2026-04-15 05:19 9.74154 -2.41058 22854 ft 431 kts 19°
2026-04-15 05:19 9.77002 -2.40083 22860 ft 431 kts 19°
2026-04-15 05:19 9.79852 -2.39108 22832 ft 432 kts 19°
2026-04-15 05:19 9.82689 -2.38137 22835 ft 433 kts 19°
2026-04-15 05:20 9.85559 -2.37156 22858 ft 432 kts 19°
2026-04-15 05:20 9.88432 -2.36172 22835 ft 433 kts 19°
2026-04-15 05:20 9.91286 -2.35194 22831 ft 433 kts 19°
2026-04-15 05:20 9.94163 -2.34210 22856 ft 432 kts 19°
2026-04-15 05:21 9.97008 -2.33236 22846 ft 431 kts 19°
2026-04-15 05:21 9.99844 -2.32264 22839 ft 432 kts 19°
2026-04-15 05:21 10.02732 -2.31275 22850 ft 433 kts 19°
2026-04-15 05:21 10.05588 -2.30297 22865 ft 433 kts 19°
2026-04-15 05:22 10.08460 -2.29312 22830 ft 433 kts 19°
2026-04-15 05:22 10.11291 -2.28342 22840 ft 431 kts 19°
2026-04-15 05:22 10.14162 -2.27357 22862 ft 433 kts 19°
2026-04-15 05:22 10.17053 -2.26366 22841 ft 433 kts 19°
2026-04-15 05:23 10.19913 -2.25385 22836 ft 434 kts 19°
2026-04-15 05:23 10.22776 -2.24403 22850 ft 434 kts 19°
2026-04-15 05:23 10.25630 -2.23424 22843 ft 433 kts 19°
2026-04-15 05:23 10.28507 -2.22436 22816 ft 434 kts 19°
2026-04-15 05:24 10.31381 -2.21450 22842 ft 432 kts 19°
2026-04-15 05:24 10.34226 -2.20473 22845 ft 435 kts 19°
2026-04-15 05:24 10.37116 -2.19481 22815 ft 433 kts 19°
2026-04-15 05:24 10.39982 -2.18497 22834 ft 434 kts 19°
2026-04-15 05:25 10.42858 -2.17509 22848 ft 439 kts 19°
2026-04-15 05:25 10.45801 -2.16498 22827 ft 440 kts 19°
2026-04-15 05:25 10.48725 -2.15493 22817 ft 441 kts 19°
2026-04-15 05:25 10.51629 -2.14495 22857 ft 440 kts 19°
2026-04-15 05:26 10.54558 -2.13488 22825 ft 442 kts 19°
2026-04-15 05:26 10.57459 -2.12491 22817 ft 440 kts 19°
2026-04-15 05:26 10.60404 -2.11478 22858 ft 442 kts 19°
2026-04-15 05:26 10.63325 -2.10473 22826 ft 441 kts 19°
2026-04-15 05:27 10.66244 -2.09468 22820 ft 441 kts 19°
2026-04-15 05:27 10.69125 -2.08477 22870 ft 441 kts 19°
2026-04-15 05:27 10.72074 -2.07462 22827 ft 441 kts 19°
2026-04-15 05:27 10.74958 -2.06469 22827 ft 441 kts 19°
2026-04-15 05:28 10.77909 -2.05453 22865 ft 441 kts 19°
2026-04-15 05:28 10.80796 -2.04459 22825 ft 442 kts 18°
2026-04-15 05:28 10.83711 -2.03455 22828 ft 441 kts 19°
2026-04-15 05:28 10.86629 -2.02450 22866 ft 443 kts 19°
2026-04-15 05:29 10.89567 -2.01437 22830 ft 442 kts 19°
2026-04-15 05:29 10.92493 -2.00428 22825 ft 440 kts 19°
2026-04-15 05:29 10.95406 -1.99424 22861 ft 442 kts 19°
2026-04-15 05:29 10.98338 -1.98413 22826 ft 448 kts 19°
2026-04-15 05:30 11.01312 -1.97389 22832 ft 455 kts 19°
2026-04-15 05:30 11.04318 -1.96354 22862 ft 456 kts 19°
2026-04-15 05:30 11.07349 -1.95311 22826 ft 456 kts 19°
2026-04-15 05:30 11.10300 -1.94295 22815 ft 446 kts 19°
2026-04-15 05:31 11.13272 -1.93271 22874 ft 447 kts 18°
2026-04-15 05:31 11.16265 -1.92241 22843 ft 451 kts 18°
2026-04-15 05:31 11.19230 -1.91220 22831 ft 449 kts 18°
2026-04-15 05:31 11.22205 -1.90194 22883 ft 449 kts 18°
2026-04-15 05:32 11.25174 -1.89171 22847 ft 450 kts 18°
2026-04-15 05:32 11.28136 -1.88150 22843 ft 449 kts 18°
2026-04-15 05:32 11.31100 -1.87129 22885 ft 450 kts 18°
2026-04-15 05:32 11.34089 -1.86098 22844 ft 451 kts 18°
2026-04-15 05:33 11.37056 -1.85073 22848 ft 449 kts 18°
2026-04-15 05:33 11.40002 -1.84058 22885 ft 449 kts 18°
2026-04-15 05:33 11.42992 -1.83026 22845 ft 450 kts 18°
2026-04-15 05:33 11.45975 -1.81996 22849 ft 447 kts 18°
2026-04-15 05:34 11.48905 -1.80984 22885 ft 449 kts 18°
2026-04-15 05:34 11.51887 -1.79954 22846 ft 450 kts 18°
2026-04-15 05:34 11.54865 -1.78926 22847 ft 451 kts 18°
2026-04-15 05:34 11.57825 -1.77903 22883 ft 451 kts 18°
2026-04-15 05:35 11.60842 -1.76861 22844 ft 450 kts 18°
2026-04-15 05:35 11.63786 -1.75844 22844 ft 449 kts 18°
2026-04-15 05:35 11.66761 -1.74815 22881 ft 450 kts 18°
2026-04-15 05:35 11.69718 -1.73793 22844 ft 451 kts 18°
2026-04-15 05:36 11.72698 -1.72763 22840 ft 449 kts 18°
2026-04-15 05:36 11.75663 -1.71736 22877 ft 450 kts 18°
2026-04-15 05:36 11.78638 -1.70707 22845 ft 450 kts 18°
2026-04-15 05:36 11.81613 -1.69678 22834 ft 450 kts 18°
2026-04-15 05:37 11.84609 -1.68640 22874 ft 443 kts 18°
2026-04-15 05:37 11.87357 -1.67466 22802 ft 424 kts 30°
2026-04-15 05:37 11.89588 -1.65601 22714 ft 406 kts 48°
2026-04-15 05:37 11.91055 -1.63200 22645 ft 390 kts 65°
2026-04-15 05:38 11.91892 -1.60593 22105 ft 388 kts 71°
2026-04-15 05:38 11.92762 -1.57994 21639 ft 383 kts 70°
2026-04-15 05:38 11.93234 -1.55353 20712 ft 394 kts 87°
2026-04-15 05:38 11.92995 -1.52517 19512 ft 408 kts 94°
2026-04-15 05:39 11.93001 -1.49666 18941 ft 398 kts 84°
2026-04-15 05:39 11.93626 -1.47002 18580 ft 386 kts 67°
2026-04-15 05:39 11.95037 -1.44708 17960 ft 377 kts 45°
2026-04-15 05:39 11.97086 -1.43070 17340 ft 373 kts 28°
2026-04-15 05:40 11.99554 -1.42180 16234 ft 383 kts
2026-04-15 05:40 12.02159 -1.42284 15944 ft 368 kts 347°
2026-04-15 05:40 12.04470 -1.43229 15499 ft 365 kts 330°
2026-04-15 05:40 12.06549 -1.44735 14951 ft 359 kts 330°
2026-04-15 05:41 12.08824 -1.45606 14581 ft 352 kts 349°
2026-04-15 05:41 12.11301 -1.45768 13939 ft 351 kts
2026-04-15 05:41 12.13611 -1.45137 13607 ft 347 kts 24°
2026-04-15 05:41 12.15575 -1.43717 13011 ft 348 kts 44°
2026-04-15 05:42 12.17462 -1.42101 12090 ft 357 kts 34°
2026-04-15 05:42 12.19396 -1.40514 11094 ft 365 kts 49°
2026-04-15 05:42 12.21027 -1.38596 10852 ft 350 kts 46°
2026-04-15 05:42 12.22762 -1.36922 10635 ft 341 kts 41°
2026-04-15 05:43 12.24689 -1.35478 10114 ft 340 kts 33°
2026-04-15 05:43 12.26730 -1.34313 10067 ft 323 kts 26°
2026-04-15 05:43 12.28753 -1.33468 9650 ft 308 kts 18°
2026-04-15 05:43 12.30749 -1.32913 9236 ft 290 kts 12°
2026-04-15 05:44 12.32711 -1.32593 8893 ft 273 kts
2026-04-15 05:44 12.34559 -1.32493 8587 ft 265 kts 359°
2026-04-15 05:44 12.36408 -1.32581 8319 ft 260 kts 354°
2026-04-15 05:44 12.38198 -1.32851 8078 ft 260 kts 348°
2026-04-15 05:45 12.39929 -1.33407 7814 ft 262 kts 330°
2026-04-15 05:45 12.41313 -1.34603 7584 ft 261 kts 314°
2026-04-15 05:45 12.42580 -1.35931 7308 ft 260 kts 315°
2026-04-15 05:45 12.43828 -1.37249 7052 ft 259 kts 314°
2026-04-15 05:46 12.45083 -1.38577 6792 ft 258 kts 314°
2026-04-15 05:46 12.46320 -1.39890 6460 ft 253 kts 315°
2026-04-15 05:46 12.47498 -1.41141 6218 ft 231 kts 315°
2026-04-15 05:46 12.48563 -1.42271 5989 ft 212 kts 315°
2026-04-15 05:47 12.49550 -1.43317 5834 ft 199 kts 315°
2026-04-15 05:47 12.50500 -1.44326 5616 ft 195 kts 315°
2026-04-15 05:47 12.51435 -1.45319 5436 ft 187 kts 315°
2026-04-15 05:47 12.52304 -1.46241 5318 ft 172 kts 315°
2026-04-15 05:48 12.53118 -1.47104 5073 ft 166 kts 316°
2026-04-15 05:48 12.53906 -1.47940 4973 ft 155 kts 315°
2026-04-15 05:48 12.54806 -1.48446 4867 ft 147 kts 355°
2026-04-15 05:48 12.55773 -1.48146 4791 ft 151 kts 38°
2026-04-15 05:49 12.56265 -1.47221 4572 ft 151 kts 83°
2026-04-15 05:49 12.55958 -1.46210 4518 ft 156 kts 127°
2026-04-15 05:49 12.55035 -1.45598 4480 ft 159 kts 155°
2026-04-15 05:49 12.54018 -1.45143 4427 ft 158 kts 154°
2026-04-15 05:50 12.53066 -1.44601 4363 ft 157 kts 141°
2026-04-15 05:50 12.52247 -1.43857 4312 ft 156 kts 132°
2026-04-15 05:50 12.50804 -1.42183 4190 ft 157 kts 135°
2026-04-15 05:51 12.49782 -1.41794 4117 ft 160 kts 180°
2026-04-15 05:51 12.48714 -1.42161 3843 ft 164 kts 218°
2026-04-15 05:51 12.47796 -1.42829 3607 ft 161 kts 215°
2026-04-15 05:51 12.46865 -1.43460 3366 ft 159 kts 215°
2026-04-15 05:52 12.45955 -1.44076 3151 ft 155 kts 215°
2026-04-15 05:52 12.45038 -1.44698 2958 ft 156 kts 215°
2026-04-15 05:52 12.44132 -1.45314 2758 ft 156 kts 215°
2026-04-15 05:52 12.43225 -1.45927 2565 ft 154 kts 214°
2026-04-15 05:53 12.42338 -1.46524 2366 ft 153 kts 214°
2026-04-15 05:53 12.41450 -1.47119 2164 ft 152 kts 214°
2026-04-15 05:53 12.40556 -1.47719 1958 ft 151 kts 214°
2026-04-15 05:53 12.39687 -1.48301 1754 ft 149 kts 214°
2026-04-15 05:54 12.38820 -1.48887 1473 ft 148 kts 214°
2026-04-15 05:54 12.37970 -1.49466 1323 ft 146 kts 214°
2026-04-15 05:54 12.37111 -1.50041 1167 ft 147 kts 213°
2026-04-15 05:54 12.36238 -1.50618 1008 ft 145 kts 213°
2026-04-15 05:55 12.35587 -1.51055 1021 ft 68 kts 214°
2026-04-15 05:55 12.35308 -1.51239 1027 ft 58 kts 213°
2026-04-15 05:55 12.35016 -1.51435 1036 ft 32 kts 214°
2026-04-15 05:55 12.34836 -1.51558 1041 ft 29 kts 214°
2026-04-15 05:56 12.34668 -1.51672 1046 ft 28 kts 212°
2026-04-15 05:56 12.34489 -1.51788 1050 ft 33 kts 213°
2026-04-15 05:56 12.34293 -1.51917 1051 ft 25 kts 213°
2026-04-15 05:56 12.34215 -1.52002 1049 ft 6 kts 176°
2026-04-15 05:57 12.34234 -1.51960 1050 ft 11 kts 42°
2026-04-15 05:57 12.34322 -1.51896 1051 ft 19 kts 33°
2026-04-15 05:57 12.34458 -1.51804 1050 ft 27 kts 33°
2026-04-15 05:57 12.34650 -1.51677 1047 ft 36 kts 33°
2026-04-15 05:58 12.34887 -1.51519 1040 ft 39 kts 33°
2026-04-15 05:58 12.35005 -1.51502 1037 ft 9 kts 316°
2026-04-15 05:58 12.35048 -1.51551 1037 ft 9 kts 307°
2026-04-15 05:58 12.35084 -1.51585 1037 ft 5 kts 333°
2026-04-15 05:59 12.35096 -1.51590 1037 ft 0 kts 341°